Regional Weather Roundup
Issued by NWS Wilmington, NC

Current Version | Previous Version | Graphics & Text | Print | Product List | Glossary Off
Versions: 1 2 3 4 5 6 7 8 9 10 11 12 13 14 15 16 17 18 19 20 21 22 23 24 25 26 27 28 29 30 31 32 33 34 35 36 37 38 39 40 41 42 43 44 45 46 47 48 49 50

000
ASUS42 KILM 200713
RWRILM
RWRILM
REGIONAL HOURLY WEATHER ROUNDUP
NATIONAL WEATHER SERVICE WILMINGTON NC
300 AM EDT WED SEP 20 2017

NOTE: "FAIR" INDICATES FEW OR NO CLOUDS BELOW 12,000 FEET WITH NO
SIGNIFICANT WEATHER AND/OR OBSTRUCTIONS TO VISIBILITY.

...............WFO WILMINGTON COUNTY WARNING AREA...............

......COASTAL NC AND SC COUNTIES......

CITY           SKY/WX    TMP DP  RH WIND       PRES   REMARKS
WILMINGTON     CLEAR     68  67  96 SW3       29.95S
N MYRTLE BEACH CLEAR     71  67  87 W5        29.96S
MYRTLE BEACH   CLEAR     70  67  90 W3        29.98S

......INLAND NC AND SC COUNTIES.......

CITY           SKY/WX    TMP DP  RH WIND       PRES   REMARKS
LUMBERTON      CLEAR     62  62 100 W3        29.96S FOG
ELIZABETHTOWN  NOT AVBL
WHITEVILLE     CLEAR     67  66  96 CALM      29.96S
FLORENCE       CLEAR     68  66  93 CALM      29.97S
DARLINGTON     CLEAR     66  64  93 CALM      29.97F
KINGSTREE      FAIR      63  63 100 CALM      29.98S
HARTSVILLE     FAIR      64  64 100 CALM      29.97F
BENNETTSVILLE  FAIR      64  64 100 CALM      29.97F FOG
CONWAY         FAIR      64  64 100 CALM      29.98R
GEORGETOWN     FAIR      66  66 100 SW3       29.99S
MARION         FAIR      64  64 100 CALM      29.97S

....................REST OF NORTH CAROLINA......................

.........EASTERN NC.........

CITY           SKY/WX    TMP DP  RH WIND       PRES   REMARKS
CAPE HATTERAS  CLOUDY    75  70  84 VRB6      29.89F
JACKSONVILLE   CLEAR     64  63  96 CALM      29.95S
MOREHEAD CITY  CLEAR     71  68  90 W3        29.92F
KENANSVILLE    CLEAR     63  63 100 CALM      29.95F FOG
NEW BERN       CLEAR     68  67  96 CALM      29.94S
ELIZABETH CITY CLOUDY    70  69  97 W8        29.89F

.........CENTRAL NC.........

CITY           SKY/WX    TMP DP  RH WIND       PRES   REMARKS
RALEIGH DURHAM PTCLDY    64  63  96 CALM      29.96F
ROCKY MOUNT    CLEAR     64  64 100 CALM      29.95S
ROANOKE RAPIDS NOT AVBL
FAYETTEVILLE   CLEAR     69  66  90 W5        29.95F
HOFFMAN        CLEAR     63  62  97 CALM      29.97S

.........WESTERN NC.........

CITY           SKY/WX    TMP DP  RH WIND       PRES   REMARKS
CHARLOTTE      CLEAR     70  68  93 CALM      29.99F
GREENSBORO     PTCLDY    67  66  97 SW5       29.97F
HICKORY        NOT AVBL
BOONE          NOT AVBL
ASHEVILLE      NOT AVBL

.....................REST OF SOUTH CAROLINA.....................

.........EASTERN SC.........

CITY           SKY/WX    TMP DP  RH WIND       PRES   REMARKS
CHARLESTON     CLEAR     74  73  97 CALM      29.97F
BEAUFORT MCAS  CLEAR     74  73  97 CALM      29.98S
HILTON HEAD    CLEAR     75  73  94 CALM      29.98F

.........CENTRAL SC.........

CITY           SKY/WX    TMP DP  RH WIND       PRES   REMARKS
COLUMBIA       PTCLDY    70  66  87 CALM      29.97F
ORANGEBURG     CLEAR     68  67  96 CALM      29.98F
SUMTER SHAW    PTCLDY    70  65  85 CALM      29.96F

.........WESTERN SC.........

CITY           SKY/WX    TMP DP  RH WIND       PRES   REMARKS
GREENVILLE     NOT AVBL
ROCK HILL        N/A    N/A N/A N/A MISG      29.99F
ANDERSON       CLOUDY    70  68  93 NW3       29.99F
CLEMSON        NOT AVBL
GREENWOOD      CLEAR     67  67 100 CALM      30.00F


...................COASTAL AND OFFSHORE REPORTS..................

................LOCAL PIERS AND NC RESERVE................


STATION/POSITION TIME  SKY/WX   TEMP    WIND        PRES    VSBY
                                AIR SEA DIR/SP/G
                 (UTC)          (F)     (DEG/KT/KT) (MB)    (MI)
JOHNY MRCER PIER 0648               80  270/  5/  6 1013.2F
NC RESRV MASNBRO 0545            71     270/  1     1015.0
OCEAN CREST PIER NOT AVBL
SPRINGMAID  PIER 0648                               1014.0S


................COASTAL AND OFFSHORE BUOYS................


STATION/POSITION TIME  SKY/WX   TEMP    WIND        PRES    VSBY
                                AIR SEA DIR/SP/G
                 (UTC)          (F)     (DEG/KT/KT) (MB)    (MI)
DIMNDSHOAL 41025 0650            75 74  260/ 10/ 14 1012.1F
WVE H/P(F/S)=  6/11 SWL H/P/D(F/S/D)=  7/ 60/11

CAPE LOOKOUT     0700            75     270/  6/  7 1012.9F
ONSLOW BAY 41036 NOT AVBL
ONSLOW BAY 41064 0608            79     270/  6/  8 1013.7S
ONSLOW BAY 41159 NOT AVBL
MASNBO INL 41110 0629               78                N/A
WVE H/P(F/S)=  2/13 SWL H/P/D(F/S/D)=  2/100/13

WILM HARBR 41108 0630               79                N/A
WVE H/P(F/S)=  2/11 SWL H/P/D(F/S/D)=  2/120/11

27SE WRITB 41037 0608            79 79  270/  6/ 10 1014.1R
FRYING PAN 41013 0700            80 82  250/ 12/ 14 1014.0
SUNST NRSH 41024 0608            77 79  300/  6/  6 1014.4R
CAPRS NRSH 41029 0608            77 80  240/  8/ 12 1015.0R
EDISTO     41004 0700            80 82  240/  6/ 10 1014.6


..........OFFSHORE BUOYS BEYOND 100 NM OFFSHORE...........
.....IN A TRIANGLE---HAT TO BERMUDA TO BAHAMAS TO HAT.....


STATION/POSITION TIME  SKY/WX   TEMP    WIND        PRES    VSBY
                                AIR SEA DIR/SP/G
                 (UTC)          (F)     (DEG/KT/KT) (MB)    (MI)
150E HAT   41001 NOT AVBL
W BERMUDA  41048 0700            79 78  240/ 14/ 17 1014.7
ATLANTIC S 41049 0650            82 83  120/ 12/ 14 1017.7F
WVE H/P(F/S)=  7/10 SWL H/P/D(F/S/D)=  7/160/10

E BAHAMAS  41046 0700            82 84   90/ 10/ 14 1014.5
NE BAHAMAS 41047 0650            82 82  130/  6/ 10 1015.3F
WVE H/P(F/S)=  8/11 SWL H/P/D(F/S/D)=  8/360/11

120E CANVRL41010 0650               84   70/  2/  4 1014.7F
WVE H/P(F/S)=  6/12 SWL H/P/D(F/S/D)=  7/12


END



USA.gov is the U.S. government's official web portal to all federal, state and local government web resources and services.